Location: Oshawa
(43.9000°N, 78.8670°W)
Time: 21:44:09
(UTC-04:00)

Courier 1B - All Passes

Search period start: 27 September 2016 00:00
Search period end: 07 October 2016 00:00
Orbit: 963 x 1209 km, 28.3° (Epoch: 26 September)

Date Brightness Start Highest point End Pass type
(mag) Time Alt. Az. Time Alt. Az. Time Alt. Az.
27 Sep - 14:46:38 10° SSW 14:51:07 18° SSE 14:55:45 10° SE daylight
27 Sep - 16:38:43 10° SW 16:44:10 23° S 16:49:50 10° SE daylight
27 Sep - 18:32:32 10° SW 18:37:18 18° SSW 18:42:12 10° SSE daylight
28 Sep - 13:53:56 10° SSW 13:57:38 15° SSE 14:01:25 10° SE daylight
28 Sep - 15:45:21 10° SW 15:50:35 22° S 15:56:03 10° SE daylight
28 Sep - 17:38:40 10° SW 17:43:43 20° S 17:48:55 10° SSE daylight
28 Sep - 19:35:35 10° SSW 19:36:43 10° SSW 19:37:51 10° SSW visible
29 Sep - 13:01:49 10° S 13:04:11 12° SSE 13:06:36 10° SE daylight
29 Sep - 14:52:06 10° SW 14:57:02 21° S 15:02:10 10° SE daylight
29 Sep - 16:45:00 10° SW 16:50:08 21° S 16:55:28 10° SE daylight
29 Sep - 18:40:02 10° SW 18:43:11 13° SSW 18:46:22 10° S daylight
30 Sep - 13:59:01 10° SSW 14:03:32 19° SSE 14:08:12 10° SE daylight
30 Sep - 15:51:26 10° SW 15:56:34 22° S 16:01:54 10° SE daylight
30 Sep - 17:45:40 10° SW 17:49:37 15° SSW 17:53:41 10° SSE daylight
01 Oct - 13:06:09 10° SSW 13:10:04 16° SSE 13:14:04 10° SE daylight
01 Oct - 14:58:01 10° SW 15:03:01 22° S 15:08:13 10° SE daylight
01 Oct - 16:51:40 10° SW 16:56:04 17° SSW 17:00:37 10° SSE daylight
02 Oct - 12:13:37 10° S 12:16:37 13° SSE 12:19:41 10° SE daylight
02 Oct - 14:04:43 10° SW 14:09:30 21° S 14:14:28 10° SE daylight
02 Oct - 15:57:54 10° SW 16:02:32 19° S 16:07:20 10° SSE daylight
03 Oct - 11:22:01 10° SSE 11:23:14 11° SSE 11:24:26 10° SSE daylight
03 Oct - 13:11:32 10° SW 13:16:01 19° S 13:20:38 10° SE daylight
03 Oct - 15:04:17 10° SW 15:09:00 20° S 15:13:55 10° SE daylight
03 Oct - 16:59:16 10° SW 17:01:58 12° SSW 17:04:45 10° S daylight
04 Oct - 12:18:29 10° SSW 12:22:33 17° SSE 12:26:43 10° SE daylight
04 Oct - 14:10:47 10° SW 14:15:30 21° S 14:20:23 10° SE daylight
04 Oct - 16:04:56 10° SW 16:08:29 15° SSW 16:12:07 10° SSE daylight
05 Oct - 11:25:40 10° SSW 11:29:08 15° SSE 11:32:38 10° SE daylight
05 Oct - 13:17:23 10° SW 13:22:01 20° S 13:26:46 10° SE daylight
05 Oct - 15:10:59 10° SW 15:14:59 17° SSW 15:19:07 10° SSE daylight
06 Oct - 10:33:12 10° S 10:35:43 12° SSE 10:38:15 10° SE daylight
06 Oct - 12:24:05 10° SW 12:28:33 20° S 12:33:07 10° SE daylight
06 Oct - 14:17:14 10° SW 14:21:30 18° S 14:25:54 10° SSE daylight
